AAUSAT2
1 32788U 08021F 14268.10758273 .00003360 00000-0 36124-3 0 423
2 32788 097.6919 319.8604 0012744 202.7443 157.3212 14.89132791347114
DO-64
1 32789U 08021G 14268.15305899 .00007395 00000-0 69091-3 0 859
2 32789 097.7108 327.4015 0012024 186.3709 226.7123 14.94384763347420
CO-66
1 32791U 08021J 14267.19228593 .00002474 00000-0 28222-3 0 371
2 32791 097.6902 316.4136 0013835 212.7347 147.3013 14.86931263346765
RS-30
1 32953U 08025A 14268.51685680 .00000010 00000-0 00000 0 0 3328
2 32953 082.5097 138.8481 0018105 302.1972 057.7350 12.43050448287721
METEOR-M
1 35865U 09049A 14268.14659654 -.00000006 00000-0 16559-4 0 9313
2 35865 098.5404 312.4774 0002509 144.9869 215.1478 14.21929667260546
RS-38
1 35869U 09049E 14269.00608906 .00000114 00000-0 51474-4 0 8398
2 35869 098.5315 313.0607 0004566 151.8830 208.3080 14.22228126260763
JUGNU
1 37839U 11058B 14266.67679907 .00000405 00000-0 74392-4 0 7025
2 37839 019.9625 018.0076 0019263 349.9989 149.7021 14.12338546152490
SRMSAT
1 37841U 11058D 14267.79927078 .00000399 00000-0 74995-4 0 7040
2 37841 019.9731 032.5260 0011950 299.2033 191.3962 14.10375823152437
RAX-2
1 37853U 11061D 14267.19669519 .00009528 00000-0 63938-3 0 9177
2 37853 101.7058 344.1088 0213081 130.2002 288.7563 14.90520113157403
AUBIESAT
1 37854U 11061E 14268.16538150 .00012770 00000-0 82501-3 0 9150
2 37854 101.7088 347.7608 0210503 124.0438 294.6310 14.92014704157619
HRBE
1 37855U 11061F 14267.25252705 .00010082 00000-0 66240-3 0 9313
2 37855 101.7103 345.6129 0212974 128.2441 233.8143 14.91221131157439
RS-39
1 38051U 11062C 14268.47285690 .00388688 00000-0 16172-2 0 9584
2 38051 051.6190 071.7968 0010482 275.7549 179.8995 15.84060084149854
E-STAR
1 38079U 12006C 14268.87304241 .00162115 00000-0 14838-2 0 9897
2 38079 069.4433 083.3343 0314863 208.5054 149.9041 15.24289816138726
GOLIAT
1 38085U 12006J 14268.89854427 .00131179 00000-0 13160-2 0 3945
2 38085 069.4490 092.9794 0343884 213.1573 144.8084 15.16649518138445
HORYU-2
1 38340U 12025D 14267.42446287 .00001863 00000-0 29933-3 0 9778
2 38340 098.2700 226.3736 0011469 215.9098 144.1345 14.72812208126400
RS-40
1 38735U 12041C 14268.93272073 -.00000020 00000-0 10000-3 0 6958
2 38735 082.4753 224.7173 0017547 037.1847 323.0840 12.42560592 98099
PROITERES
1 38756U 12047B 14268.85999084 -.00000010 00000-0 00000 0 0 2462
2 38756 098.2255 358.7979 0013890 066.2077 294.1095 14.75098251110025
BEESAT-3
1 39134U 13015E 14269.07199685 .00010016 00000-0 66752-3 0 7217
2 39134 064.8752 179.0100 0034849 290.1970 069.5903 15.06349249 78851
BEESAT-2
1 39136U 13015G 14267.38739353 .00006701 00000-0 46906-3 0 7016
2 39136 064.8689 185.1568 0033983 288.8101 070.9334 15.05569882 78586
LO-75
1 39382U 13064C 14268.83678421 .00255254 00000-0 24538-2 0 4283
2 39382 040.4860 201.0251 0024889 241.0444 118.8361 15.65194447 47690
ZACUBE-1
1 39417U 13066B 14267.26913917 .00000833 00000-0 11820-3 0 4228
2 39417 097.7627 334.4513 0061099 282.2818 077.1508 14.78362075 45339
TRITON-1
1 39427U 13066M 14267.12082178 .00001050 00000-0 18346-3 0 2736
2 39427 097.7543 328.1137 0117036 296.0234 062.8953 14.65602413 44880
DELFIN3XT
1 39428U 13066N 14267.11294062 .00001823 00000-0 32101-3 0 2770
2 39428 097.7505 327.0368 0126682 298.8212 060.0314 14.63640098 44808
GOMX-1
1 39430U 13066Q 14269.05850431 .00001179 00000-0 22255-3 0 8539
2 39430 097.7489 325.8426 0154807 301.1985 057.4619 14.57041224 44906
MO-76
1 39436U 13066W 14268.42761801 .00014348 00000-0 14048-2 0 3512
2 39436 097.7710 340.5870 0024025 277.4638 082.4257 14.92179591 45819
LO-74
1 39440U 13066AA 14267.16229691 .00001331 00000-0 20261-3 0 2683
2 39440 097.7609 331.8942 0083106 287.0527 072.1603 14.73292787 45153
PUCPSAT-1
1 39442U 13066AC 14267.13384252 .00002635 00000-0 30131-3 0 2671
2 39442 097.7725 338.1469 0033205 281.6851 078.0591 14.86477416 44320
SHINAISAT
1 39572U 14009A 14268.20970853 .00113498 00000-0 56743-3 0 3140
2 39572 065.0024 053.3028 0021206 277.2528 082.6621 15.80930225 32858
TEIKYOSAT
1 39576U 14009E 14268.19474001 .00245123 29016-4 74763-3 0 3310
2 39576 065.0001 049.1112 0021696 283.2384 076.6662 15.91352085 32935
CO-77
1 39577U 14009F 14244.78324653 .10543803 76292-5 32273-3 0 3795
2 39577 064.9920 123.7668 0014904 269.7208 091.1897 16.43552757 29380
SPROUT
1 39770U 14029E 14268.95872902 .00001299 00000-0 16066-3 0 1439
2 39770 097.8742 004.5776 0010229 354.2225 005.9381 14.82791807 18632
POPSAT-HIP1
1 40028U 14033U 14268.73961152 .00002110 00000-0 25151-3 0 3007
2 40028 097.9740 163.5670 0014101 333.5068 026.5455 14.85324727 14505
EO-80
1 40032U 14033Y 14268.41780422 .00002051 00000-0 24616-3 0 2914
2 40032 097.9728 163.1646 0012516 331.5868 028.4677 14.85091986 14469
VELOX-1
1 40057U 14034E 14268.65410485 .00002035 00000-0 31598-3 0 2871
2 40057 098.2447 337.3359 0012040 011.1126 349.0340 14.74198248 12884
DAURIA DX 1
1 40071U 14037C 14268.65193511 .00000945 00000-0 13368-3 0 2589
2 40071 098.3943 323.8064 0009339 017.7660 342.3877 14.79610646 11669
UKUBE-1
1 40074U 14037F 14268.67166592 .00002025 00000-0 27150-3 0 2601
2 40074 098.3949 323.9516 0005871 032.4154 327.7418 14.80578711 11677
CHASQUI-1
1 40117U 98067ET 14268.98872958 .00064211 00000-0 96466-3 0 1383
2 40117 051.6442 319.4926 0002929 090.4686 269.7158 15.54222225 5942
